Regional Weather Roundup
Issued by NWS

Home | Current Version | Previous Version | Text Only | Print | Product List | Glossary On
Versions: 1 2 3 4 5 6 7 8 9 10 11 12 13 14 15 16 17 18 19 20 21 22 23 24 25 26 27 28
000
ASUS42 KKEY 250310
RWRKEY

FLORIDA REGIONAL WEATHER ROUNDUP FOR THE FLORIDA KEYS
NATIONAL WEATHER SERVICE KEY WEST FLORIDA
1000 PM EST FRI FEB 24 2017

...SOUTH FLORIDA AND THE KEYS...

CITY           SKY/WX    TMP DP  RH WIND       PRES   REMARKS
FORT MYERS     PTCLDY    70  67  90 NW6       29.88R
SW REGIONAL AP PTCLDY    70  66  87 W5        29.88R
NAPLES         CLOUDY    71  68  90 NW8       29.88R
MIAMI          MOCLDY    73  67  81 CALM      29.86R
WEST KENDALL   PTCLDY    69  66  90 W5        29.86R
HOMESTEAD      CLEAR     68  68 100 W5        29.85R
MARATHON       CLEAR     71  67  87 W6        29.86R
BOCA CHICA NAS CLEAR     69  64  84 NW5       29.87R
KEY WEST INTL  CLEAR     71  67  87 NW3       29.87R

...INTERNATIONAL WEATHER...

CITY           SKY/WX    TMP DP  RH WIND       PRES   REMARKS
NASSAU BAHAMAS PTCLDY    72  66  83 CALM      29.87R
CANCUN MEXICO  CLEAR     75  68  78 SE9       29.84R
COZUMEL MEXICO CLEAR     70  66  88 SE5       29.87R

ADJACENT COASTAL WATERS...

STATION/POSITION TIME  SKY/WX   TEMP    WIND        PRES    WAVE
                                AIR SEA DIR/SP/G            HT/PER
                 (UTC)          (F)     (DEG/KT/KT) (MB)    (FT/S)
PULASKI SHOAL LI 0300            71     320/  5/  6 1011.8R
SAND KEY         0250            71     330/  4/  6 1011.9R
LONG KEY         0200            72 74  290/  8/  9 1011.1R
MOLASSES REEF    NOT AVBL
FOWEY ROCKS      0200            72 74  220/ 10/ 10 1011.1R
Buoy 42097       0230                                 N/A     2/ 5

$$




USA.gov is the U.S. government's official web portal to all federal, state and local government web resources and services.